Погода в Мирном

Россия / Алтайский край     52°33′25″N   80°09′51″E
темп.,
°C
ветер,
м/с
пор.,
м/с
влажн.,
%
обл.,
%
осадки,
мм/ч
давл.,
гПа
погр.,
м
14 апреля, ср
ср1401:000сз259614 0.0 1038174
04:00−1ссз349499 0.0 1038287
07:000сз1288100 0.0 1038401
10:00+1зюз238158 0.0 1038432
13:00+7зюз565860 0.0 1035625
16:00+11з6840100 0.0 10321052
19:00+11з5945100 0.0 1030510
22:00+7з376193 0.0 1030121
15 апреля, чт
чт1501:00+5з347072 0.0 102951
04:00+4з338113 0.0 102832
07:00+3з11899 0.0 102810
10:00+6з2281100 0.0 1028192
13:00+9зюз227367 0.0 1027323
16:00+13зсз33589 0.0 10251024
19:00+13зсз335516 0.0 10241262
22:00+9ююз01682 0.0 102410
16 апреля, пт
пт1601:00+8ююз33740 0.0 102218
04:00+7ююз337612 0.0 102123
07:00+6ююз338039 0.0 102139
10:00+10ююз35645 0.0 1019297
13:00+14юз55535 0.0 10171118
16:00+17зюз45400 0.0 10151477
19:00+17зюз35400 0.0 1013572
22:00+12ююз335428 0.0 101220
17 апреля, сб
сб1701:00+10ююз3461100 0.0 101047
04:00+9ююз3465100 0.0 100852
07:00+8юз3466100 0.0 100756
10:00+11с4462100 0.0 1007305
13:00+11с666655 0.0 1008823
16:00+7с766599 0.0 1011828
19:00+4ссв666894 0.0 1014864
22:00+2ссв5568100 0.0 1016994
18 апреля, вс
вс1801:00+1ссв4471100 0.0 1017546
04:000с237495 0.0 1017461
07:00−1сз23815 0.1 101877
10:00+1сз235595 0.0 1018983
13:00+3ссз3342100 0.0 10181347
16:00+5ссз4335100 0.0 10181449
19:00+4с3337100 0.0 10191142
22:00+3ссв3648100 0.0 1020317